Carlsbad, CA

12:18 AM PST on February 10, 2016 (GMT -0800)
McClellan-Palomar

Weather History for KCRQ - July, 2013

Change the Weather History Date:

Monday, July 29, 2013

  Actual Average Record
Temperature  
Mean Temperature 66 °F -  
Max Temperature 71 °F 72 °F 82 °F (2014)
Min Temperature 63 °F 61 °F 60 °F (2002)
Cooling Degree Days 2    
Growing Degree Days 16 (Base 50)    
Moisture  
Dew Point 56 °F    
Average Humidity 70    
Maximum Humidity 81    
Minimum Humidity 61    
Precipitation  
Precipitation 0.00 in - - ()
Sea Level Pressure  
Sea Level Pressure 29.97 in    
Wind  
Wind Speed 3 mph (WSW)    
Max Wind Speed 10 mph    
Max Gust Speed -    
Visibility 10 miles    
Events      
Averages and records for this station are not official NWS values.
T = Trace of Precipitation, MM = Missing Value Source: NWS Daily Summary

Daily Weather History Graph

Daily Weather History Graph

Search for Another Location

Airport or City:

Trip Planner

Search our weather history database for the weather conditions in past years. The results will help you decide how hot, cold, wet, or windy it might be!

Date:

Astronomy

Jul. 29, 2013 Rise Set
Actual Time 6:00 AM PDT 7:50 PM PDT
Civil Twilight 5:33 AM PDT 8:17 PM PDT
Nautical Twilight 5:00 AM PDT 8:50 PM PDT
Astronomical Twilight 4:25 AM PDT 9:25 PM PDT
Moon No Moon Rise 1:19 PM PDT (7/29)
Length of Visible Light 14h 44m
Length of Day
13h 49m
Waning Gibbous, 50% of the Moon is Illuminated
Jul 29
Waning Gibbous
Aug 6
New
Aug 14
First Quarter
Aug 20
Full
Aug 28
Last Quarter

Hourly Weather History & Observations

Time (PDT) Temp. Dew Point Humidity Pressure Visibility Wind Dir Wind Speed Gust Speed Precip Events Conditions
12:53 AM 64.0 °F 55.9 °F 75% 29.92 in 10.0 mi Calm Calm - N/A   Overcast
1:53 AM 64.0 °F 57.0 °F 78% 29.91 in 10.0 mi Calm Calm - N/A   Overcast
2:53 AM 64.0 °F 57.0 °F 78% 29.91 in 10.0 mi Calm Calm - N/A   Overcast
3:53 AM 64.0 °F 57.0 °F 78% 29.91 in 10.0 mi Calm Calm - N/A   Overcast
4:53 AM 64.0 °F 57.0 °F 78% 29.91 in 10.0 mi West 3.5 mph - N/A   Overcast
5:53 AM 63.0 °F 57.0 °F 81% 29.93 in 10.0 mi WNW 3.5 mph - N/A   Overcast
6:53 AM 64.0 °F 57.0 °F 78% 29.95 in 10.0 mi Calm Calm - N/A   Overcast
7:53 AM 64.9 °F 55.9 °F 73% 29.97 in 10.0 mi Calm Calm - N/A   Overcast
8:53 AM 64.9 °F 55.9 °F 73% 29.98 in 10.0 mi SW 5.8 mph - N/A   Overcast
9:35 AM 64.4 °F 55.4 °F 73% 29.99 in 10.0 mi SW 5.8 mph - N/A   Overcast
9:53 AM 66.0 °F 55.9 °F 70% 29.99 in 10.0 mi West 4.6 mph - N/A   Overcast
10:53 AM 66.9 °F 55.0 °F 66% 30.00 in 10.0 mi WSW 6.9 mph - N/A   Mostly Cloudy
11:20 AM 68.0 °F 55.4 °F 64% 30.00 in 10.0 mi Variable 3.5 mph - N/A   Scattered Clouds
11:53 AM 69.1 °F 55.0 °F 61% 30.00 in 10.0 mi Variable 6.9 mph - N/A   Clear
12:53 PM 68.0 °F 55.0 °F 63% 30.01 in 10.0 mi West 10.4 mph - N/A   Clear
1:53 PM 69.1 °F 55.0 °F 61% 29.99 in 10.0 mi WSW 6.9 mph - N/A   Clear
2:53 PM 70.0 °F 55.9 °F 61% 29.99 in 10.0 mi WSW 9.2 mph - N/A   Clear
3:53 PM 69.1 °F 55.0 °F 61% 29.97 in 10.0 mi WSW 9.2 mph - N/A   Clear
4:53 PM 69.1 °F 55.9 °F 63% 29.98 in 10.0 mi WSW 9.2 mph - N/A   Clear
5:53 PM 68.0 °F 55.9 °F 65% 29.97 in 10.0 mi WSW 9.2 mph - N/A   Clear
6:53 PM 66.9 °F 55.9 °F 68% 29.97 in 10.0 mi WSW 8.1 mph - N/A   Clear
7:53 PM 66.0 °F 55.9 °F 70% 29.99 in 10.0 mi Variable 3.5 mph - N/A   Clear
8:53 PM 64.9 °F 55.9 °F 73% 30.01 in 10.0 mi Calm Calm - N/A   Clear
9:53 PM 64.9 °F 55.9 °F 73% 30.02 in 10.0 mi West 3.5 mph - N/A   Clear
10:53 PM 64.9 °F 57.0 °F 75% 30.03 in 10.0 mi Calm Calm - N/A   Clear
11:53 PM 64.9 °F 55.9 °F 73% 30.04 in 10.0 mi Calm Calm - N/A   Clear